x

South Santa Rosa Is. Ca (46069) Wave Buoy

5:50pm - Fri 29th Jul 2016 All times are PDT. -7 hours from GMT.

  • Sig Wave height 4.9ft
  • Swell Direction
  • Peak Period 10s
  • Average Period 6s
  • Wind
    20mph, 25mph gusts
  • Sea Temp 66°f
  • 空気 Temp 61°f
  • Sea Pressure 1009.4mb
  • South Santa Rosa Is. Ca
  • South Santa Rosa Is. Ca

More Historic Weather Station data

Upgrade to MSW Pro to gain access to the past 30 days of data for over 8000 Wavebouys and Weather Stations around the globe.

Join Pro

Comparision Forecast

View Surf forecast
   
Fri 07/29 5:50pm 5ft 10s 6s 20 25 mph 1009.4mb 66f 61f
4:50pm 5ft 10s 6s 20 25 mph 1009.7mb 66f 62f
3:50pm 5ft 10s 6s 18 22 mph 1010.1mb 66f 62f
2:50pm 5.5ft 10s 6s 18 22 mph 1010.7mb 66f 61f
1:50pm 6ft 10s 6s 16 20 mph 1011.1mb 66f 61f
12:50pm 5.5ft 9s 6s 16 20 mph 1011.4mb 66f 61f
11:50am 5ft 11s 6s 18 20 mph 1011.2mb 66f 61f
10:50am 5ft 10s 6s 16 20 mph 1011.6mb 66f 61f
9:50am 5ft 10s 6s 16 20 mph 1011.4mb 66f 60f
8:50am 5.5ft 10s 6s 16 20 mph 1011.6mb 66f 60f
7:50am 5.5ft 10s 6s 18 22 mph 1010.9mb 66f 60f
6:50am 6ft 9s 6s 18 20 mph 1010.5mb 66f 61f
5:50am 6ft 10s 6s 18 20 mph 1010.5mb 66f 60f
4:50am 6.5ft 9s 6s 18 25 mph 1010.2mb 66f 60f
3:50am 6ft 10s 6s 20 25 mph 1010.3mb 66f 61f
2:50am 6.5ft 10s 6s 18 22 mph 1010.3mb 67f 61f
1:50am 6.5ft 10s 6s 20 25 mph 1010.2mb 67f 61f
12:50am 7ft 10s 6s 20 25 mph 1010.6mb 67f 61f
Thu 07/28 11:50pm 6.5ft 10s 6s 20 25 mph 1010.8mb 67f 61f
10:50pm 5.5ft 10s 6s 20 25 mph 1011.1mb 67f 61f
9:50pm 6ft 10s 6s 20 22 mph 1011.2mb 67f 61f
8:50pm 6ft 10s 6s 20 25 mph 1010.7mb 68f 62f
7:50pm 5.5ft 10s 6s 20 25 mph 1010.4mb 68f 62f
6:50pm 5.5ft 10s 6s 20 22 mph 1010.4mb 68f 62f
5:50pm 5ft 10s 6s 20 25 mph 1010.7mb 68f 62f
3:50pm 5ft 10s 6s 18 20 mph 1012mb 68f 62f
2:50pm 5ft 9s 6s 16 18 mph 1012.4mb 68f 62f
1:50pm 5ft 10s 6s 16 18 mph 1013.1mb 68f 62f
12:50pm 5.5ft 10s 7s 13 18 mph 1013.6mb 68f 62f
10:50am 6ft 10s 7s 13 18 mph 1013.5mb 67f 62f
9:50am 6ft 10s 7s 13 16 mph 1013.3mb 67f 62f
8:50am 6ft 10s 7s 13 18 mph 1013.3mb 67f 61f
7:50am 6ft 10s 6s 13 18 mph 1013.2mb 67f 61f
6:50am 6.5ft 10s 7s 16 20 mph 1012.6mb 67f 61f
5:50am 6.5ft 10s 7s 16 18 mph 1012mb 67f 61f
4:50am 6.5ft 10s 7s 16 20 mph 1011.9mb 67f 61f
3:50am 6.5ft 9s 7s 16 22 mph 1011.8mb 67f 61f
2:50am 6ft 10s 7s 16 20 mph 1012mb 67f 60f
1:50am 5.5ft 9s 6s 16 20 mph 1012.1mb 67f 61f
12:50am 6ft 9s 7s 16 18 mph 1012.5mb 67f 61f
Wed 07/27 11:50pm 5.5ft 10s 6s 16 20 mph 1012.4mb 67f 61f
10:50pm 6ft 9s 7s 16 20 mph 1012.3mb 67f 62f
9:50pm 5ft 10s 7s 18 20 mph 1012.4mb 67f 62f
8:50pm 6ft 10s 7s 18 20 mph 1012.1mb 67f 62f
7:50pm 5ft 10s 7s 16 20 mph 1011.9mb 67f 62f
6:50pm 5ft 10s 7s 13 18 mph 1012mb 67f 62f
5:50pm 5ft 10s 7s 16 18 mph 1012.2mb 67f 62f
4:50pm 5ft 11s 7s 13 18 mph 1012.7mb 67f 62f
3:50pm 5ft 11s 7s 13 18 mph 1013.1mb 67f 62f
2:50pm 5ft 10s 7s 13 16 mph 1013.6mb 67f 61f
1:50pm 6ft 10s 8s 13 16 mph 1013.9mb 67f 61f
12:50pm 5ft 10s 8s 11 16 mph 1014.2mb 67f 61f
11:50am 5.5ft 9s 8s 9 11 mph 1014.4mb 66f 61f
10:50am 5ft 9s 8s 9 11 mph 1013.9mb 66f 60f
9:50am 5.5ft 10s 8s 9 11 mph 1013.8mb 66f 60f
8:50am 5.5ft 10s 8s 9 13 mph 1013.6mb 66f 60f
7:50am 5ft 10s 7s 9 11 mph 1013.1mb 66f 60f
6:50am 6ft 10s 8s 11 13 mph 1012.7mb 67f 60f
5:50am 6.5ft 9s 8s 11 13 mph 1011.9mb 67f 60f
4:50am 5.5ft 10s 7s 11 16 mph 1011.5mb 67f 60f
3:50am 6ft 10s 7s 11 16 mph 1011.7mb 66f 59f
2:50am 5.5ft 10s 7s 11 13 mph 1011.6mb 66f 59f
1:50am 5.5ft 10s 7s 11 16 mph 1011.9mb 66f 60f
12:50am 5.5ft 10s 7s 11 13 mph 1012.2mb 66f 60f
Tue 07/26 11:50pm 5.5ft 9s 7s 13 18 mph 1011.9mb 67f 60f
10:50pm 6ft 9s 7s 16 20 mph 1011.9mb 67f 60f
9:50pm 6ft 9s 7s 16 20 mph 1011.5mb 67f 60f
8:50pm 6ft 9s 7s 16 20 mph 1011.1mb 67f 60f
7:50pm 5.5ft 8s 7s 16 20 mph 1011.1mb 67f 60f
6:50pm 5ft 9s 7s 16 20 mph 1011.2mb 67f 60f
5:50pm 5ft 10s 7s 16 20 mph 1011.4mb 67f 60f
4:50pm 4.5ft 10s 7s 18 20 mph 1011.3mb 67f 60f
3:50pm 5ft 9s 7s 13 18 mph 1012.1mb 67f 61f
2:50pm 5ft 11s 8s 13 16 mph 1012.5mb 67f 61f
1:50pm 5ft 14s 8s 9 11 mph 1013.1mb 67f 61f
12:50pm 5ft 10s 7s 7 9 mph 1013.3mb 66f 61f
11:50am 5.5ft 9s 8s 9 11 mph 1013.1mb 66f 61f
10:50am 5ft 9s 7s 7 11 mph 1013.3mb 66f 61f
9:50am 5ft 9s 7s 9 11 mph 1013mb 66f 61f
8:50am 5ft 10s 7s 7 9 mph 1013.5mb 66f 60f
7:50am 5ft 9s 7s 9 13 mph 1013.2mb 66f 60f
6:50am 5.5ft 9s 7s 7 9 mph 1012.9mb 66f 60f
5:50am 5ft 8s 7s 7 9 mph 1012.7mb 66f 60f
4:50am 6ft 10s 8s 7 9 mph 1012.6mb 66f 59f
3:50am 5.5ft 10s 7s 9 13 mph 1012.7mb 67f 59f
2:50am 6ft 9s 7s 9 11 mph 1012.9mb 66f 59f